QPF
0.04 0.06 0.05 0.05 0.04 0.06 0.08 0.09 0.07 0.07 0.08 0.09 0.10 0.10 0.09 0.09 0.08 0.07 0.07 0.09 0.08 0.05 0.05 0.06 0.06 0.06 0.07 0.07 0.07 0.08 0.09 0.08 0.09 0.08 0.08 0.10 0.14 0.19
0.04 0.04 0.03 0.03 0.03 0.03 0.05 0.07 0.08 0.08 0.06 0.06 0.06 0.07 0.07 0.08 0.08 0.06 0.05 0.05 0.05 0.05 0.05 0.05 0.04 0.04 0.03 0.03 0.05 0.06 0.06 0.05 0.05 0.05 0.05 0.07 0.10 0.15
0.03 0.03 0.02 0.02 0.02 0.03 0.04 0.05 0.07 0.09 0.08 0.07 0.05 0.04 0.05 0.03 0.02 0.02 0.03 0.04 0.04 0.03 0.03 0.03 0.03 0.03 0.02 0.03 0.04 0.06 0.07 0.07 0.06 0.05 0.06 0.08 0.09 0.11
0.03 0.03 0.03 0.02 0.02 0.03 0.04 0.04 0.06 0.07 0.07 0.06 0.06 0.05 0.04 0.04 0.03 0.03 0.03 0.03 0.03 0.03 0.02 0.02 0.02 0.02 0.02 0.03 0.04 0.05 0.06 0.06 0.06 0.06 0.06 0.07 0.07 0.08
0.02 0.02 0.02 0.03 0.02 0.02 0.03 0.03 0.04 0.05 0.06 0.05 0.05 0.05 0.04 0.04 0.04 0.03 0.03 0.03 0.03 0.02 0.02 0.02 0.02 0.03 0.05 0.05 0.05 0.05 0.06 0.06 0.06 0.06 0.06 0.06 0.06 0.07
0.01 0.01 0.02 0.03 0.03 0.03 0.04 0.04 0.04 0.05 0.06 0.07 0.05 0.04 0.04 0.03 0.03 0.03 0.03 0.03 0.02 0.01 0.02 0.02 0.03 0.05 0.06 0.06 0.06 0.05 0.05 0.06 0.06 0.06 0.06 0.06 0.05 0.06
0.01 0.01 0.02 0.02 0.03 0.04 0.06 0.05 0.04 0.05 0.05 0.06 0.04 0.04 0.04 0.04 0.03 0.02 0.03 0.04 0.03 0.02 0.02 0.02 0.02 0.03 0.03 0.03 0.04 0.04 0.03 0.03 0.03 0.04 0.04 0.04 0.04 0.04
0.01 0.01 0.02 0.02 0.02 0.04 0.06 0.07 0.07 0.05 0.05 0.04 0.03 0.04 0.04 0.03 0.03 0.03 0.04 0.04 0.03 0.03 0.03 0.03 0.03 0.03 0.03 0.03 0.03 0.03 0.02 0.02 0.03 0.03 0.03 0.03 0.03 0.03
0.01 0.02 0.04 0.03 0.03 0.04 0.05 0.06 0.05 0.04 0.03 0.03 0.03 0.03 0.03 0.03 0.02 0.02 0.03 0.04 0.03 0.03 0.04 0.07 0.07 0.06 0.04 0.04 0.04 0.03 0.03 0.03 0.03 0.02 0.02 0.02 0.02 0.02
0.02 0.04 0.04 0.04 0.04 0.03 0.04 0.05 0.04 0.03 0.03 0.02 0.02 0.02 0.01 0.01 0.01 0.02 0.03 0.03 0.03 0.04 0.05 0.06 0.06 0.05 0.04 0.04 0.03 0.03 0.02 0.02 0.01 0.01 0.01 0.01 0.01 0.01
0.02 0.02 0.01 0.02 0.02 0.02 0.02 0.03 0.03 0.02 0.02 0.01 0.01 0.01 0.01 0.01 0.01 0.02 0.02 0.03 0.04 0.05 0.06 0.07 0.07 0.05 0.05 0.03 0.02 0.01 0.01 0.00 0.00 0.00 0.00 0.00 0.01 0.00
0.01 0.00 0.00 0.00 0.00 0.01 0.02 0.02 0.01 0.01 0.01 0.01 0.01 0.01 0.01 0.01 0.01 0.02 0.03 0.04 0.06 0.06 0.06 0.06 0.06 0.04 0.03 0.02 0.01 0.01 0.01 0.01 0.00 0.00 0.00 0.00 0.00 0.01
0.00 0.00 0.00 0.00 0.00 0.01 0.02 0.03 0.04 0.02 0.02 0.02 0.01 0.01 0.01 0.01 0.01 0.02 0.04 0.05 0.06 0.05 0.04 0.03 0.02 0.01 0.01 0.01 0.01 0.00 0.01 0.01 0.01 0.02 0.01 0.01 0.00 0.00
0.01 0.01 0.00 0.00 0.00 0.00 0.01 0.03 0.03 0.03 0.03 0.03 0.02 0.01 0.01 0.01 0.01 0.01 0.02 0.03 0.03 0.02 0.02 0.02 0.03 0.03 0.02 0.02 0.01 0.01 0.00 0.00 0.01 0.02 0.02 0.01 0.01 0.00
0.02 0.02 0.01 0.01 0.00 0.00 0.01 0.01 0.02 0.03 0.03 0.02 0.02 0.01 0.01 0.01 0.01 0.01 0.02 0.02 0.02 0.03 0.02 0.01 0.01 0.02 0.02 0.02 0.01 0.01 0.01 0.00 0.00 0.01 0.01 0.01 0.01 0.01
0.02 0.03 0.02 0.01 0.01 0.01 0.01 0.01 0.01 0.02 0.02 0.02 0.02 0.02 0.02 0.03 0.03 0.02 0.02 0.02 0.03 0.03 0.03 0.02 0.02 0.02 0.02 0.02 0.02 0.01 0.01 0.01 0.00 0.00 0.01 0.01 0.01 0.01
0.03 0.03 0.02 0.01 0.01 0.01 0.01 0.01 0.01 0.02 0.02 0.03 0.03 0.04 0.05 0.06 0.06 0.05 0.04 0.03 0.03 0.03 0.03 0.03 0.03 0.03 0.03 0.02 0.02 0.02 0.01 0.01 0.00 0.01 0.01 0.01 0.00 0.01
0.02 0.01 0.01 0.01 0.01 0.01 0.01 0.01 0.01 0.02 0.02 0.03 0.03 0.04 0.04 0.04 0.04 0.04 0.02 0.02 0.02 0.02 0.02 0.03 0.03 0.03 0.04 0.04 0.02 0.02 0.01 0.01 0.00 0.01 0.01 0.01 0.01 0.00
0.01 0.01 0.01 0.02 0.02 0.01 0.01 0.01 0.01 0.01 0.02 0.02 0.02 0.02 0.02 0.02 0.03 0.03 0.03 0.02 0.02 0.02 0.01 0.02 0.02 0.03 0.04 0.05 0.05 0.03 0.02 0.01 0.01 0.01 0.01 0.01 0.01 0.00
0.01 0.01 0.01 0.01 0.02 0.01 0.01 0.01 0.01 0.01 0.01 0.01 0.01 0.02 0.02 0.02 0.02 0.02 0.02 0.02 0.02 0.01 0.01 0.02 0.02 0.02 0.02 0.03 0.03 0.03 0.03 0.02 0.02 0.02 0.01 0.01 0.01 0.01
0.01 0.01 0.01 0.01 0.01 0.01 0.01 0.01 0.01 0.01 0.02 0.02 0.02 0.02 0.02 0.02 0.02 0.02 0.02 0.03 0.03 0.02 0.02 0.02 0.02 0.01 0.01 0.02 0.02 0.02 0.03 0.02 0.02 0.02 0.02 0.02 0.02 0.01
0.01 0.01 0.01 0.01 0.01 0.02 0.01 0.01 0.01 0.02 0.02 0.03 0.03 0.03 0.03 0.03 0.03 0.02 0.03 0.03 0.03 0.03 0.03 0.03 0.03 0.03 0.03 0.03 0.03 0.03 0.02 0.02 0.02 0.02 0.02 0.02 0.02 0.02
0.01 0.01 0.01 0.01 0.02 0.02 0.02 0.02 0.01 0.02 0.02 0.02 0.02 0.03 0.02 0.02 0.02 0.02 0.02 0.02 0.03 0.03 0.05 0.05 0.04 0.04 0.03 0.04 0.04 0.03 0.02 0.02 0.02 0.02 0.02 0.02 0.02 0.02
MSLP
1015.20 1015.03 1014.89 1014.80 1014.76 1014.78 1014.85 1015.00 1015.22 1015.51 1015.88 1016.30 1016.74 1017.19 1017.59 1017.91 1018.14 1018.25 1018.27 1018.20 1018.08 1017.95 1017.84 1017.75 1017.69 1017.64 1017.57 1017.44 1017.21 1016.86 1016.40 1015.82 1015.17 1014.48 1013.81 1013.20 1012.69 1012.29
1015.30 1015.09 1014.91 1014.77 1014.67 1014.63 1014.66 1014.77 1014.97 1015.27 1015.65 1016.11 1016.61 1017.13 1017.61 1018.01 1018.32 1018.50 1018.57 1018.55 1018.45 1018.33 1018.21 1018.11 1018.03 1017.96 1017.86 1017.71 1017.46 1017.10 1016.60 1015.99 1015.29 1014.54 1013.79 1013.09 1012.48 1011.98
1015.43 1015.19 1014.96 1014.77 1014.61 1014.51 1014.49 1014.55 1014.72 1015.00 1015.39 1015.88 1016.42 1016.99 1017.53 1018.01 1018.38 1018.62 1018.75 1018.76 1018.69 1018.59 1018.47 1018.37 1018.28 1018.21 1018.12 1017.97 1017.74 1017.39 1016.91 1016.31 1015.60 1014.84 1014.05 1013.30 1012.63 1012.06
1015.56 1015.31 1015.05 1014.82 1014.62 1014.47 1014.40 1014.42 1014.55 1014.80 1015.17 1015.65 1016.21 1016.80 1017.37 1017.89 1018.30 1018.59 1018.75 1018.80 1018.76 1018.68 1018.58 1018.49 1018.43 1018.37 1018.31 1018.21 1018.02 1017.73 1017.31 1016.76 1016.09 1015.36 1014.59 1013.84 1013.16 1012.57
1015.68 1015.43 1015.17 1014.92 1014.70 1014.52 1014.41 1014.39 1014.48 1014.69 1015.02 1015.47 1016.00 1016.57 1017.13 1017.65 1018.07 1018.38 1018.57 1018.64 1018.64 1018.58 1018.52 1018.46 1018.44 1018.44 1018.43 1018.40 1018.29 1018.09 1017.76 1017.30 1016.73 1016.08 1015.38 1014.68 1014.04 1013.48
1015.75 1015.53 1015.29 1015.06 1014.84 1014.65 1014.52 1014.47 1014.51 1014.67 1014.94 1015.32 1015.79 1016.30 1016.82 1017.29 1017.70 1018.00 1018.19 1018.29 1018.32 1018.30 1018.28 1018.28 1018.32 1018.39 1018.46 1018.52 1018.52 1018.43 1018.23 1017.90 1017.46 1016.93 1016.34 1015.74 1015.18 1014.69
1015.75 1015.56 1015.37 1015.17 1014.98 1014.81 1014.68 1014.61 1014.61 1014.70 1014.90 1015.19 1015.56 1015.98 1016.42 1016.83 1017.19 1017.46 1017.65 1017.77 1017.83 1017.86 1017.90 1017.96 1018.07 1018.22 1018.39 1018.56 1018.67 1018.72 1018.65 1018.48 1018.19 1017.81 1017.36 1016.90 1016.45 1016.05
1015.64 1015.51 1015.36 1015.22 1015.08 1014.94 1014.82 1014.73 1014.70 1014.73 1014.85 1015.04 1015.30 1015.62 1015.95 1016.28 1016.57 1016.82 1017.00 1017.13 1017.22 1017.30 1017.40 1017.54 1017.72 1017.96 1018.22 1018.49 1018.73 1018.90 1018.98 1018.96 1018.84 1018.61 1018.33 1018.01 1017.69 1017.41
1015.45 1015.35 1015.26 1015.17 1015.07 1014.97 1014.87 1014.79 1014.72 1014.71 1014.74 1014.84 1014.99 1015.20 1015.43 1015.68 1015.91 1016.11 1016.28 1016.43 1016.55 1016.69 1016.84 1017.05 1017.30 1017.61 1017.96 1018.32 1018.66 1018.95 1019.16 1019.29 1019.31 1019.25 1019.12 1018.95 1018.76 1018.60
1015.20 1015.12 1015.05 1015.00 1014.94 1014.87 1014.79 1014.70 1014.62 1014.56 1014.54 1014.55 1014.62 1014.73 1014.88 1015.05 1015.24 1015.41 1015.58 1015.74 1015.90 1016.07 1016.28 1016.53 1016.84 1017.20 1017.60 1018.03 1018.44 1018.83 1019.15 1019.39 1019.55 1019.63 1019.64 1019.60 1019.54 1019.48
1014.94 1014.84 1014.77 1014.72 1014.67 1014.62 1014.55 1014.46 1014.37 1014.28 1014.21 1014.17 1014.18 1014.23 1014.32 1014.44 1014.60 1014.76 1014.93 1015.11 1015.29 1015.50 1015.74 1016.03 1016.36 1016.75 1017.18 1017.63 1018.09 1018.53 1018.92 1019.25 1019.52 1019.71 1019.84 1019.91 1019.96 1020.00
1014.73 1014.57 1014.45 1014.36 1014.30 1014.23 1014.16 1014.07 1013.97 1013.87 1013.77 1013.71 1013.68 1013.69 1013.76 1013.86 1014.00 1014.16 1014.35 1014.54 1014.76 1014.98 1015.24 1015.53 1015.87 1016.25 1016.67 1017.13 1017.59 1018.05 1018.48 1018.87 1019.21 1019.48 1019.70 1019.87 1020.00 1020.12
1014.60 1014.34 1014.14 1013.98 1013.86 1013.76 1013.66 1013.56 1013.45 1013.34 1013.24 1013.16 1013.12 1013.12 1013.18 1013.29 1013.43 1013.61 1013.81 1014.02 1014.25 1014.49 1014.75 1015.03 1015.35 1015.70 1016.09 1016.51 1016.96 1017.41 1017.85 1018.27 1018.64 1018.97 1019.25 1019.49 1019.70 1019.88
1014.57 1014.18 1013.86 1013.61 1013.41 1013.25 1013.11 1012.98 1012.85 1012.73 1012.63 1012.55 1012.51 1012.52 1012.58 1012.69 1012.85 1013.05 1013.27 1013.49 1013.73 1013.97 1014.22 1014.48 1014.76 1015.07 1015.41 1015.79 1016.19 1016.62 1017.04 1017.46 1017.86 1018.23 1018.56 1018.84 1019.11 1019.34
1014.62 1014.11 1013.67 1013.31 1013.02 1012.78 1012.59 1012.41 1012.26 1012.12 1012.00 1011.91 1011.86 1011.87 1011.93 1012.06 1012.22 1012.43 1012.66 1012.89 1013.13 1013.37 1013.60 1013.83 1014.07 1014.34 1014.63 1014.95 1015.31 1015.70 1016.10 1016.51 1016.92 1017.30 1017.66 1018.00 1018.30 1018.59
1014.75 1014.12 1013.57 1013.11 1012.73 1012.42 1012.16 1011.93 1011.73 1011.55 1011.40 1011.28 1011.21 1011.20 1011.24 1011.35 1011.51 1011.71 1011.93 1012.17 1012.41 1012.63 1012.85 1013.05 1013.26 1013.48 1013.73 1014.01 1014.32 1014.67 1015.05 1015.45 1015.86 1016.26 1016.64 1017.01 1017.36 1017.70
1014.93 1014.22 1013.60 1013.07 1012.62 1012.24 1011.91 1011.61 1011.35 1011.11 1010.89 1010.72 1010.59 1010.52 1010.52 1010.58 1010.71 1010.88 1011.08 1011.31 1011.53 1011.74 1011.94 1012.13 1012.31 1012.51 1012.72 1012.96 1013.25 1013.57 1013.93 1014.32 1014.73 1015.15 1015.56 1015.96 1016.36 1016.74
1015.18 1014.44 1013.79 1013.22 1012.72 1012.29 1011.90 1011.53 1011.19 1010.86 1010.55 1010.28 1010.05 1009.89 1009.80 1009.79 1009.84 1009.96 1010.12 1010.31 1010.51 1010.71 1010.89 1011.07 1011.24 1011.42 1011.61 1011.84 1012.11 1012.42 1012.77 1013.16 1013.58 1014.01 1014.45 1014.89 1015.33 1015.76
1015.49 1014.79 1014.15 1013.58 1013.07 1012.60 1012.15 1011.71 1011.27 1010.84 1010.41 1010.01 1009.66 1009.37 1009.16 1009.03 1008.99 1009.02 1009.11 1009.25 1009.41 1009.59 1009.75 1009.92 1010.08 1010.25 1010.43 1010.65 1010.91 1011.22 1011.58 1011.98 1012.41 1012.87 1013.34 1013.82 1014.30 1014.79
1015.89 1015.25 1014.67 1014.14 1013.64 1013.15 1012.65 1012.14 1011.61 1011.05 1010.49 1009.94 1009.44 1008.99 1008.63 1008.36 1008.20 1008.12 1008.13 1008.19 1008.30 1008.43 1008.57 1008.72 1008.87 1009.03 1009.21 1009.42 1009.68 1009.99 1010.36 1010.77 1011.23 1011.72 1012.23 1012.75 1013.28 1013.82
1016.37 1015.83 1015.33 1014.85 1014.38 1013.88 1013.35 1012.77 1012.14 1011.47 1010.76 1010.06 1009.39 1008.79 1008.26 1007.84 1007.54 1007.34 1007.24 1007.21 1007.25 1007.32 1007.42 1007.53 1007.65 1007.79 1007.96 1008.16 1008.42 1008.73 1009.11 1009.54 1010.02 1010.55 1011.10 1011.67 1012.25 1012.84
1016.91 1016.48 1016.06 1015.64 1015.19 1014.70 1014.14 1013.50 1012.79 1012.00 1011.18 1010.33 1009.51 1008.74 1008.06 1007.49 1007.04 1006.71 1006.49 1006.36 1006.30 1006.30 1006.33 1006.38 1006.46 1006.56 1006.70 1006.88 1007.12 1007.43 1007.81 1008.27 1008.78 1009.34 1009.94 1010.56 1011.19 1011.82
1017.46 1017.11 1016.76 1016.39 1015.98 1015.49 1014.91 1014.23 1013.44 1012.57 1011.64 1010.68 1009.73 1008.83 1008.01 1007.30 1006.72 1006.25 1005.91 1005.66 1005.50 1005.40 1005.34 1005.32 1005.32 1005.36 1005.45 1005.59 1005.81 1006.10 1006.48 1006.95 1007.49 1008.08 1008.73 1009.39 1010.07 1010.75
Thickness
5749 5746 5745 5744 5742 5739 5736 5731 5725 5717 5708 5705 5704 5702 5700 5697 5694 5693 5690 5687 5686 5685 5683 5682 5681 5679 5677 5676 5675 5673 5673 5671 5670 5669 5668 5668 5667 5667
5743 5741 5739 5740 5737 5735 5733 5729 5727 5720 5709 5703 5699 5696 5693 5692 5688 5686 5683 5681 5678 5676 5674 5673 5671 5670 5668 5666 5665 5664 5663 5661 5660 5659 5658 5658 5657 5657
5739 5737 5734 5733 5732 5731 5728 5725 5722 5717 5707 5699 5695 5690 5687 5685 5682 5681 5678 5676 5671 5667 5665 5663 5662 5659 5657 5656 5654 5653 5652 5650 5649 5648 5647 5646 5646 5645
5733 5732 5730 5729 5726 5725 5723 5720 5716 5711 5705 5695 5690 5685 5682 5679 5676 5675 5673 5670 5666 5660 5657 5655 5652 5650 5648 5646 5644 5643 5641 5639 5638 5636 5635 5635 5634 5633
5729 5726 5725 5723 5720 5719 5716 5714 5710 5706 5700 5693 5686 5681 5677 5674 5671 5669 5666 5662 5660 5654 5650 5647 5643 5641 5638 5636 5634 5632 5630 5628 5627 5625 5624 5623 5622 5621
5724 5722 5719 5717 5714 5712 5710 5706 5703 5699 5694 5689 5683 5677 5672 5668 5667 5664 5660 5656 5653 5650 5645 5640 5636 5632 5630 5627 5625 5622 5620 5618 5616 5615 5613 5611 5610 5608
5718 5716 5713 5709 5706 5705 5705 5701 5697 5694 5690 5685 5679 5674 5668 5664 5662 5660 5656 5652 5647 5644 5640 5637 5632 5629 5624 5618 5615 5611 5609 5607 5606 5604 5602 5600 5598 5597
5713 5711 5709 5705 5700 5696 5693 5691 5689 5687 5684 5680 5675 5668 5662 5660 5656 5655 5651 5647 5642 5638 5636 5632 5628 5624 5618 5612 5606 5602 5600 5598 5595 5593 5591 5590 5588 5586
5707 5706 5706 5701 5697 5694 5688 5684 5681 5678 5675 5674 5670 5664 5660 5656 5652 5649 5644 5641 5636 5633 5629 5625 5622 5617 5612 5604 5598 5594 5591 5589 5586 5584 5581 5580 5578 5576
5701 5698 5696 5693 5691 5688 5686 5681 5677 5672 5669 5667 5663 5659 5654 5650 5646 5643 5638 5633 5629 5625 5622 5619 5615 5611 5607 5599 5591 5588 5584 5581 5578 5576 5574 5571 5569 5567
5695 5691 5689 5685 5680 5678 5678 5674 5670 5666 5661 5657 5653 5649 5645 5641 5639 5638 5633 5630 5624 5620 5616 5613 5609 5606 5601 5595 5587 5582 5578 5575 5572 5569 5567 5565 5563 5561
5688 5684 5678 5676 5672 5670 5671 5668 5664 5660 5657 5653 5647 5643 5639 5635 5631 5629 5628 5624 5620 5615 5610 5607 5604 5600 5596 5592 5587 5580 5575 5570 5567 5564 5561 5558 5557 5557
5686 5681 5675 5668 5665 5662 5661 5660 5656 5653 5651 5648 5644 5640 5635 5630 5626 5623 5619 5617 5614 5611 5607 5601 5599 5595 5592 5588 5584 5579 5575 5570 5565 5560 5556 5553 5550 5549
5678 5675 5668 5660 5658 5655 5654 5650 5648 5645 5646 5643 5639 5634 5630 5626 5621 5617 5612 5608 5605 5603 5598 5594 5593 5588 5586 5583 5580 5575 5571 5567 5563 5559 5554 5549 5546 5543
5669 5662 5658 5653 5651 5649 5645 5643 5641 5642 5640 5637 5632 5628 5625 5620 5615 5610 5606 5602 5598 5595 5592 5587 5584 5582 5580 5578 5575 5571 5566 5562 5558 5555 5551 5547 5544 5540
5661 5654 5650 5647 5646 5643 5641 5639 5638 5637 5634 5630 5627 5623 5619 5614 5610 5607 5603 5598 5594 5591 5585 5581 5577 5574 5573 5571 5568 5565 5561 5557 5554 5550 5546 5543 5540 5537
5655 5653 5650 5648 5645 5643 5640 5637 5634 5631 5627 5625 5621 5617 5613 5608 5605 5601 5596 5593 5590 5585 5582 5577 5573 5569 5566 5564 5561 5558 5555 5552 5549 5544 5539 5539 5536 5533
5649 5649 5647 5645 5642 5639 5637 5633 5629 5625 5622 5619 5615 5611 5607 5603 5599 5595 5591 5588 5584 5581 5577 5574 5570 5566 5563 5560 5553 5552 5549 5546 5543 5539 5536 5534 5532 5529
5644 5645 5643 5640 5637 5634 5632 5628 5625 5621 5616 5613 5609 5605 5601 5597 5593 5589 5585 5582 5579 5576 5573 5569 5565 5561 5557 5555 5550 5544 5543 5539 5537 5534 5532 5529 5527 5524
5642 5641 5639 5635 5631 5628 5626 5623 5619 5614 5610 5606 5603 5599 5595 5591 5587 5583 5580 5576 5573 5570 5567 5563 5559 5555 5552 5549 5547 5542 5536 5535 5532 5529 5527 5525 5522 5518
5639 5636 5633 5630 5626 5623 5619 5615 5612 5608 5603 5600 5597 5592 5589 5585 5582 5579 5576 5568 5565 5564 5561 5558 5554 5547 5546 5543 5540 5539 5535 5528 5525 5521 5520 5518 5517 5515
5634 5630 5627 5623 5620 5616 5612 5608 5604 5601 5596 5593 5590 5586 5583 5580 5576 5572 5570 5566 5561 5559 5555 5553 5549 5545 5542 5539 5537 5535 5531 5526 5520 5516 5512 5510 5508 5507
5629 5625 5621 5617 5613 5609 5606 5602 5598 5595 5591 5587 5584 5580 5577 5574 5570 5567 5563 5560 5556 5553 5550 5548 5545 5542 5539 5536 5533 5530 5527 5522 5519 5514 5511 5506 5501 5498